C/2004 K2 (McNaught)                                                  

T 2004 June 16.16951 TT                                 Nakano

q   1.5994068            (2000.0)            P               Q

n   0.10404251     Peri.  180.36076     +0.88111848     +0.46799989

a   4.4770865      Node   151.42052     -0.43351710     +0.85672220

e   0.6427572      Incl.    8.15637     -0.18892630     +0.21680216

P   9.47 (+/-514.47 day)

From 24 observations 2004 May 20-28.

Residuals in seconds of arc 

2004/                     040523 G90  1.0+  0.5+    040525 474  1.3-  0.5+  

040520 E12  0.5+  0.8-    040523 G90  0.1+  0.2+    040525 474  1.2+  0.2+  

040520 E12  0.3-  0.1-    040523 703  0.2+  0.6-    040525 474  0.7-  0.7-  

040520 E12  0.9-  0.5+    040523 703  0.6-  1.5+    040525 474  1.1-  0.4-  

040520 E12  0.9+  0.2-    040525 673  0.4-  0.4+    040528 673  0.3+  0.2-  

040523 G90  0.0   0.2+    040525 673  0.9+  0.0     040528 673  0.2-  0.1-  

040523 G90  0.2+  0.6-    040525 673  0.2-  0.2-    040528 673  0.1+  0.1-  

040523 G90  0.0   0.1-    040525 673  0.3+  0.1-                            

040523 G90  1.2-  0.3-    040525 673  1.1+  0.4+                            



NAKANO

         **** Don't distribute anyone except personal use only ****

                (C) Copyright 2004 OAA/ComputingSection

write mail from CFAD0::NAKANO on 2004-06-02 06:08:27(JST).

 

߂܂B